Location: Helsinki
(60.1699°N, 24.9384°E)
Time: 16:30:23
(UTC+03:00)

Transit 2A Rocket - Pass Details

Date: 28 September 2023
Orbit: 582 x 910 km, 66.7° (Epoch: 06 September)

Event Time Altitude Azimuth Distance (km) Brightness Sun altitude
Rises 16:34:43 0° 230° (SW) 3,285 10.1 16.4°
Reaches altitude 10° 16:37:14 10° 231° (SW) 2,303 10.3 16.1°
Maximum altitude 16:42:30 88° 321° (NW) 718 5.2 15.6°
Drops below altitude 10° 16:47:15 10° 52° (NE) 2,092 6.7 15.1°
Sets 16:49:27 0° 53° (NE) 2,961 7.4 14.9°
